Regional Weather Roundup
Issued by NWS

Home | Current Version | Previous Version | Text Only | Print | Product List | Glossary Off
Versions: 1 2 3 4 5 6 7 8 9 10 11 12 13 14 15 16 17 18 19 20 21 22 23 24 25 26 27 28 29 30 31 32 33 34 35 36 37 38 39 40 41 42 43 44 45 46 47 48 49 50

000
ASUS43 KLOT 231410
RWRIL

ILLINOIS REGIONAL WEATHER ROUNDUP
NATIONAL WEATHER SERVICE CHICAGO/ROMEOVILLE IL
900 AM CDT SAT AUG 23 2014

NOTE: "FAIR" INDICATES FEW OR NO CLOUDS BELOW 12,000 FEET WITH NO
SIGNIFICANT WEATHER AND/OR OBSTRUCTIONS TO VISIBILITY.

* THESE STATIONS ARE NOT UNDER NWS QUALITY CONTROL. THEY ALSO MAY NOT
  REPORT WEATHER SUCH AS PRECIPITATION OR FOG.

ILZ001-002-007-009-015-016-024-231500-
NORTHWEST ILLINOIS

CITY           SKY/WX    TMP DP  RH WIND       PRES   REMARKS
MOLINE         CLOUDY    77  74  90 NE3       29.95S
STERLING*      PTSUNNY   79  75  89 SE6       29.96F HX  82
SAVANNA*       CLOUDY    78  74  89 CALM      29.96S
$$

ILZ003-004-008-010-011-017-018-231500-
NORTH CENTRAL ILLINOIS

CITY           SKY/WX    TMP DP  RH WIND       PRES   REMARKS
ROCKFORD       CLOUDY    77  73  87 SE5       30.00R FOG
FREEPORT*      CLOUDY    74  73  96 CALM      30.00F FOG
ROCHELLE*      PTSUNNY   77  73  88 CALM      29.99S
DE KALB*       CLOUDY    74  73  98 E7        30.00S FOG
PERU*          PTSUNNY   80  74  82 E5        29.98S HX  85
$$

ILZ005-006-012>014-019>023-231500-
NORTHEAST ILLINOIS

CITY           SKY/WX    TMP DP  RH WIND       PRES   REMARKS
CHICAGO-OHARE  PTSUNNY   78  74  87 CALM      29.99S FOG     HX  81
CHICAGO-MIDWAY PTSUNNY   81  75  82 CALM      29.98F HX  87
AURORA         MOSUNNY   80  73  79 E5        29.99S HAZE    HX  84
LANSING*       SUNNY     78  74  85 CALM      29.99S HX  81
JOLIET*        SUNNY     79  71  75 E3        29.99S HX  82
WAUKEGAN       FOG       72  71  97 CALM      30.00R VSB 1/2
DUPAGE AIRPORT CLOUDY    80  74  81 VRB3      29.99S HAZE    HX  85
KANKAKEE*      MOSUNNY   79  75  87 E7        29.99F HX  82
WHEELING       CLOUDY    76  72  87 CALM      30.01S FOG
MORRIS*        SUNNY     80  75  87 SE3       29.98S HX  84
ROMEOVILLE*    MOSUNNY   78  75  92 CALM      29.99S HX  80
NORTHERLY ISL    N/A     73  71  93 NE2         N/A
$$

LMZ740>746-231500-
SOUTHERN LAKE MICHIGAN

STATION/POSITION SKY/WX   TEMP    WIND        PRES    VSBY  WAVE
                          AIR SEA DIR/SP/G                  HT/PER
                          (F)     (DEG/KT/KT) (MB)    (MI)  (FT/S)
SOUTHERN BUOY              70 69   80/  8/ 10 1016.0R         0
WAUKEGAN HARBOR            71      40/  5/  6   N/A
HARRISON CRIB              72      30/  1/  2   N/A
BURNHAM HARBOR             73      40/  2       N/A
CALUMET HARBOR             74      40/  3/  3 1014.3F
MICHIGAN CITY              75     240/  4/  5   N/A
MICHIGAN CITY 6N           77 73     CALM       N/A           0
ST. JOSEPH                 73 73  110/  4/  6   N/A           1
$$

ILZ025>027-034>036-040-047-049-050-058-095>099-231500-
WEST-CENTRAL ILLINOIS

CITY           SKY/WX    TMP DP  RH WIND       PRES   REMARKS
QUINCY         MOSUNNY   83  75  77 W8        29.95S HX  90
GALESBURG*     CLOUDY    77  75  94 CALM      29.96S FOG
MACOMB*        PTSUNNY   78  77  98 SE5       29.98R FOG     HX  80
JACKSONVILLE*  MOSUNNY   83  79  88 W6        29.97S HX  93
PITTSFIELD*    MOSUNNY   83  76  79 W6        29.97S HX  90
$$

ILZ028>032-037-038-041>044-048-051>054-059>061-231500-
CENTRAL ILLINOIS

CITY           SKY/WX    TMP DP  RH WIND       PRES   REMARKS
PONTIAC        SUNNY     81  79  94 E6        29.97F FOG     HX  89
DECATUR        PTSUNNY   81  77  88 SE5       29.97R HX  88
PEORIA         LGT RAIN  80  75  84 CALM      29.96S HX  85
LACON*         PTSUNNY   78  74  88 SE3       29.96R HX  80
LINCOLN*       CLOUDY    82  77  86 SE5       29.92F HAZE    HX  89
SPRINGFIELD    SUNNY     83  77  82 S3        29.95S HX  92
TAYLORVILLE    SUNNY     79  77  94 S5        29.96S HX  83
$$

ILZ033-039-045-046-055>057-062-063-231500-
EAST-CENTRAL ILLINOIS

CITY           SKY/WX    TMP DP  RH WIND       PRES   REMARKS
CHAMPAIGN      CLOUDY    77  76  96 E6        29.98S FOG
DANVILLE*      HVY RAIN  75  75  98 CALM      29.97R
RANTOUL*       CLOUDY    78  76  91 SE3       29.99S FOG     HX  82
MATTOON        CLOUDY    77  76  96 S3        29.97R FOG
PARIS*         CLOUDY    76  76 100 CALM      29.99S FOG
$$

ILZ079-100>102-231500-
SOUTHWEST ILLINOIS

CITY           SKY/WX    TMP DP  RH WIND       PRES   REMARKS
ALTON          SUNNY     82  79  89 W9        29.97R HX  93
BELLEVILLE     SUNNY     83  79  88 VRB2      29.96R HX  93
CAHOKIA*       SUNNY     85  75  72 W3        29.96R HX  93
SPARTA*        SUNNY     83  76  80 W5        29.98S HX  91
$$

ILZ064>066-069>071-074>076-080>082-084>086-088>090-092>094-231500-
SOUTH-CENTRAL ILLINOIS

CITY           SKY/WX    TMP DP  RH WIND       PRES   REMARKS
CARBONDALE     SUNNY     83  76  79 SW5       29.97R HX  91
CAIRO*         SUNNY     82  77  83 SW6       29.98S HX  91
MARION         PTSUNNY   82  77  83 S6        29.98S HX  91
MT. VERNON     MOSUNNY   81  75  83 SW8       29.97S HX  86
CENTRALIA*     SUNNY     89  76  66 SW6       29.97R HX 100
SALEM*         SUNNY     84  79  86 SW6       29.96S HX  95
METROPOLIS*    RAIN      79  74  83 CALM      29.99S HX  83
$$

ILZ067-068-072-073-078-083-087-091-231500-
SOUTHEAST ILLINOIS

CITY           SKY/WX    TMP DP  RH WIND       PRES   REMARKS
LAWRENCEVILLE  SUNNY     80  75  84 S6        29.96F HX  85
FLORA*         SUNNY     81  78  89 SW6       29.96S HX  89
FAIRFIELD*     SUNNY     82  81  94 S5        29.96S HX  95
HARRISBURG*    MOSUNNY   80  78  94 SW7       29.98S HX  85
ROBINSON*      SUNNY     81  77  88 CALM      29.97S HX  89
CARMI*         SUNNY     84  79  84 SW7       29.96S HX  96
$$

ABBREVIATIONS USED IN REMARKS
   TC - TEMPERATURE IN CELSIUS
  WCI - WIND CHILL INDEX
   HX - HEAT INDEX
  VSB - VISIBILITY
$$




USA.gov is the U.S. government's official web portal to all federal, state and local government web resources and services.